HB9FVK-10 Weather Reports


Display with metric or nautical units.
time (UTC)temp
F
wind
direction
speed
MPH
gust
MPH
rain 1hr
in
rain 24hr
in
rain mn
in
humidity
%
barometer
mb
20260506084101 54 89 2.0 2.0 0.00 0.00 0.00 86 1011.8
20260506083100 54 65 1.0 3.0 0.00 0.00 0.00 83 1011.8
20260506082120 54 126 2.0 3.0 0.00 0.00 0.00 84 1011.7
20260506081057 54 124 2.0 4.0 0.00 0.00 0.00 85 1011.8
20260506073113 53 70 1.0 4.0 0.00 0.00 0.00 86 1011.6
20260506072112 53 94 2.0 4.0 0.00 0.00 0.00 86 1011.7
20260506071050 53 83 3.0 4.0 0.00 0.00 0.00 86 1011.7
20260506062044 51 120 3.0 6.0 0.00 0.00 0.00 92 1011.6
20260506061044 50 102 2.0 5.0 0.00 0.00 0.00 93 1011.7
20260506051056 49 163 2.0 3.0 0.00 0.00 0.00 95 1012.0
20260506045034 49 129 4.0 7.0 0.00 0.00 0.00 95 1011.8
20260506044032 49 129 4.0 7.0 0.00 0.00 0.00 95 1011.9
20260506043032 49 127 4.0 6.0 0.00 0.00 0.00 95 1011.8
20260506042030 49 154 5.0 7.0 0.00 0.00 0.00 95 1011.9
20260506041029 49 170 3.0 5.0 0.00 0.00 0.00 96 1011.9
20260506040028 49 166 3.0 6.0 0.00 0.00 0.00 96 1011.9
20260506035047 49 125 2.0 5.0 0.00 0.00 0.00 96 1012.0
20260506034026 49 77 1.0 4.0 0.00 0.00 0.00 96 1012.1
20260506033024 49 98 2.0 4.0 0.00 0.00 0.00 96 1012.2
20260506032043 49 350 4.0 6.0 0.00 0.00 0.00 96 1012.3
20260506031022 49 39 3.0 4.0 0.00 0.00 0.00 95 1012.3
20260506030021 49 73 1.0 4.0 0.00 0.00 0.00 94 1012.4
20260506025019 49 164 4.0 6.0 0.00 0.00 0.00 95 1012.7
20260506024039 50 125 3.0 7.0 0.00 0.00 0.00 93 1012.6
20260506023017 50 121 4.0 9.0 0.00 0.00 0.00 92 1012.7
20260506022057 50 156 3.0 8.0 0.00 0.00 0.00 94 1012.8
20260506021116 50 179 3.0 6.0 0.00 0.00 0.00 96 1012.8
20260506020114 50 150 3.0 4.0 0.00 0.00 0.00 95 1012.9
20260506015112 50 147 3.0 4.0 0.00 0.00 0.00 96 1013.1
20260506014111 50 149 3.0 3.0 0.00 0.00 0.00 95 1013.2
20260506013110 50 112 2.0 3.0 0.00 0.00 0.00 95 1013.4
20260506012109 50 105 3.0 4.0 0.00 0.00 0.00 95 1013.6
20260506011107 50 120 3.0 4.0 0.00 0.00 0.00 95 1013.8
20260506010106 50 92 2.0 3.0 0.00 0.00 0.00 94 1013.8
20260506005105 51 139 2.0 3.0 0.00 0.00 0.00 94 1013.8
20260506004105 51 141 3.0 5.0 0.00 0.00 0.00 94 1013.8
20260506003102 51 167 4.0 5.0 0.00 0.00 0.00 94 1014.0
20260506002102 51 166 5.0 7.0 0.00 0.00 0.00 94 1014.1
20260506001120 50 151 4.0 5.0 0.00 0.00 0.00 95 1014.2
20260506000100 50 77 3.0 4.0 0.00 0.00 0.00 94 1014.2
20260505235058 51 106 3.0 4.0 0.00 0.00 0.00 93 1014.1
20260505234058 51 140 1.0 3.0 0.00 0.00 0.00 93 1014.3
20260505233056 51 136 2.0 2.0 0.00 0.00 0.00 94 1014.3
20260505232054 51 126 2.0 4.0 0.00 0.00 0.00 94 1014.5
20260505231053 51 147 3.0 5.0 0.00 0.00 0.00 94 1014.5
20260505230052 50 152 3.0 4.0 0.00 0.00 0.00 95 1014.8
20260505225111 50 144 4.0 5.0 0.00 0.00 0.00 95 1014.7
20260505224051 50 144 2.0 4.0 0.00 0.00 0.00 95 1014.8
20260505223049 50 124 2.0 3.0 0.00 0.00 0.00 94 1014.7
20260505222047 50 89 1.0 3.0 0.00 0.00 0.00 94 1014.6
20260505221046 50 107 2.0 3.0 0.00 0.00 0.00 94 1014.6
20260505220124 50 131 3.0 4.0 0.00 0.00 0.00 94 1014.8
20260505215044 51 129 3.0 4.0 0.00 0.00 0.00 94 1014.8
20260505214042 51 128 3.0 4.0 0.00 0.00 0.00 94 1014.8
20260505213041 51 128 4.0 6.0 0.00 0.00 0.00 93 1014.9
20260505212040 51 116 3.0 4.0 0.00 0.00 0.00 92 1015.0
20260505211039 51 160 4.0 5.0 0.00 0.00 0.00 92 1015.0
20260505210037 51 161 5.0 6.0 0.00 0.00 0.00 93 1015.0
20260505205036 52 108 4.0 5.0 0.00 0.00 0.00 92 1015.1
20260505204035 52 151 5.0 6.0 0.00 0.00 0.00 91 1015.0
20260505203033 52 160 5.0 6.0 0.00 0.00 0.00 92 1014.9
20260505202032 52 136 4.0 6.0 0.00 0.00 0.00 91 1014.8
20260505201031 52 149 4.0 6.0 0.00 0.00 0.00 91 1014.7
20260505200030 53 158 3.0 4.0 0.00 0.00 0.00 90 1014.6
20260505195049 53 71 2.0 4.0 0.00 0.00 0.00 89 1014.5
20260505194028 54 152 3.0 4.0 0.00 0.00 0.00 88 1014.4
20260505193026 54 170 3.0 4.0 0.00 0.00 0.00 88 1014.4
20260505192025 55 180 4.0 5.0 0.00 0.00 0.00 86 1014.3
20260505191024 55 181 3.0 4.0 0.00 0.00 0.00 86 1014.2
20260505190023 55 162 3.0 7.0 0.00 0.00 0.00 86 1013.9
20260505185022 56 163 2.0 3.0 0.00 0.00 0.00 84 1013.9
20260505184020 58 185 3.0 4.0 0.00 0.00 0.00 80 1013.9
20260505183040 58 206 3.0 7.0 0.00 0.00 0.00 76 1013.8
20260505182038 59 173 2.0 4.0 0.00 0.00 0.00 77 1013.8
20260505181016 59 157 2.0 4.0 0.00 0.00 0.00 75 1013.9
20260505180115 59 215 4.0 7.0 0.00 0.00 0.00 75 1013.9
20260505175114 59 162 3.0 4.0 0.00 0.00 0.00 77 1014.0
20260505174113 59 163 2.0 4.0 0.00 0.00 0.00 78 1013.9
20260505173112 58 179 3.0 6.0 0.00 0.00 0.00 78 1014.0
20260505172111 58 152 5.0 9.0 0.00 0.00 0.00 79 1013.8
20260505171109 57 163 5.0 7.0 0.00 0.00 0.00 82 1013.6
20260505170108 56 179 4.0 7.0 0.00 0.00 0.00 82 1013.7
20260505165107 56 149 2.0 5.0 0.00 0.00 0.00 83 1013.6
20260505164146 56 161 3.0 5.0 0.00 0.00 0.00 82 1013.7
20260505163105 56 140 2.0 3.0 0.00 0.00 0.00 83 1013.8
20260505162124 56 112 1.0 3.0 0.00 0.00 0.00 83 1013.8
20260505161102 56 223 1.0 3.0 0.00 0.00 0.00 83 1014.0
20260505153058 56 173 1.0 5.0 0.00 0.00 0.00 82 1013.9
20260505152056 57 244 4.0 6.0 0.00 0.00 0.00 80 1013.9
20260505151055 58 217 3.0 5.0 0.00 0.00 0.00 77 1013.8
20260505125038 61 277 4.0 6.0 0.00 0.00 0.00 75 1013.6
20260505124037 60 240 4.0 10.0 0.00 0.00 0.00 74 1013.6
20260505123037 59 291 2.0 5.0 0.00 0.00 0.00 76 1013.7
20260505122035 59 226 4.0 5.0 0.00 0.00 0.00 76 1013.7
20260505121034 59 20 1.0 3.0 0.00 0.00 0.00 78 1013.6
20260505120032 59 123 1.0 2.0 0.00 0.00 0.00 78 1013.7
20260505115031 57 85 2.0 5.0 0.00 0.00 0.00 80 1013.7
20260505114030 57 343 3.0 4.0 0.00 0.00 0.00 84 1013.8
20260505113050 56 161 1.0 2.0 0.00 0.00 0.00 84 1013.9
20260505112028 56 226 1.0 4.0 0.00 0.00 0.00 84 1013.9
20260505111047 56 355 1.0 3.0 0.00 0.00 0.00 85 1013.9
20260505102042 55 355 2.0 2.0 0.00 0.00 0.00 85 1014.3
20260505101039 55 9 2.0 3.0 0.00 0.00 0.00 85 1014.3
20260505100018 55 16 1.0 2.0 0.00 0.00 0.00 85 1014.2
20260505095017 55 51 2.0 3.0 0.00 0.00 0.00 84 1014.1
20260505094116 55 51 1.0 3.0 0.00 0.00 0.00 85 1014.1
20260505093114 54 124 1.0 2.0 0.00 0.00 0.00 86 1014.2
20260505092134 54 261 2.0 4.0 0.00 0.00 0.00 87 1014.1
20260505091112 54 320 1.0 5.0 0.00 0.00 0.00 87 1014.1
20260505090111 54 13 2.0 4.0 0.00 0.00 0.00 87 1014.0
20260505085110 54 44 2.0 5.0 0.00 0.00 0.00 88 1014.1